Torna al catalogo

STARLINK-32288

AttivoComunicazioniVLEO
NORAD 60943·PAYLOAD·🇺🇸 United States

Lanciato Aug 31, 2024 da Vandenberg Space Force Base

Loading…

Prossimi Passaggi (prossime 24 ore)

TLE

AggiornatoSource: CelesTrak SupGP

Epoca: Sep 14, 2026, 19:32 UTC

1 60943C 24155V   26257.81437500 -.00017457  00000+0 -51610-3 0  2577
2 60943  53.1579 328.0154 0001267  81.6790 206.9766 15.34378902    13

Traccia STARLINK-32288 in tempo reale con AllMySat

Download on the App Store